Temp
77 88 94 90 72 73 67 73 83 76 78 83 86 81 78 65 61 60 80 84 85 80 85 81 73 74 74 74 74 74 74 75 75 75 74 75 75 75 75 76 76 76 77 77 76 76 75 74 73
94 93 91 83 68 64 69 78 74 79 83 83 81 83 82 66 72 72 75 79 84 77 84 81 72 73 74 74 74 74 75 75 74 75 75 75 75 75 75 75 75 76 77 77 76 75 74 73 72
88 92 81 76 71 65 67 74 77 80 82 82 81 85 79 73 76 76 83 74 76 77 80 78 72 72 73 73 73 74 74 74 74 74 75 75 75 75 75 74 75 76 76 76 76 74 73 71 70
90 88 84 70 67 74 75 78 80 80 84 84 85 78 78 77 78 78 83 81 73 75 76 73 71 72 73 73 74 73 73 73 73 74 75 75 75 75 74 74 75 76 76 76 74 73 71 70 70
90 85 72 70 70 75 79 81 81 79 81 82 83 79 75 73 77 77 79 80 79 78 76 72 70 72 73 73 73 73 72 73 73 74 74 74 74 74 74 74 74 74 74 74 73 72 71 70 69
80 83 68 64 69 75 79 82 81 80 80 80 78 81 70 75 73 69 70 70 75 69 69 70 71 71 72 72 72 72 72 72 72 73 73 73 73 72 73 73 72 72 72 72 71 70 70 69 69
77 76 69 70 68 72 75 82 77 77 77 78 84 75 69 70 66 68 67 66 66 68 67 68 69 71 69 69 70 70 71 71 72 72 71 71 71 71 71 72 72 71 71 71 70 70 69 69 68
82 78 71 72 68 65 78 78 79 76 77 82 83 74 68 66 65 64 64 63 64 64 65 65 66 67 70 73 69 70 70 70 70 70 69 69 70 70 70 70 71 71 71 70 70 68 68 68 67
87 72 68 69 70 70 81 76 79 78 78 78 78 75 68 68 65 62 60 61 60 61 61 64 64 64 68 70 70 70 69 69 69 70 69 71 79 79 79 70 69 69 69 69 68 68 67 66 66
78 73 70 78 78 76 78 75 75 74 75 74 65 67 66 66 66 63 59 57 59 58 58 59 60 62 63 67 69 68 72 73 74 74 75 77 79 79 77 70 68 68 67 67 67 67 67 70 79
79 72 77 79 79 80 78 77 78 75 68 73 69 59 62 63 66 64 59 57 57 58 59 59 60 62 61 63 63 64 72 74 73 72 74 76 74 73 74 72 74 73 71 76 74 73 79 79 79
73 79 80 81 81 78 75 80 74 72 72 76 65 63 65 66 63 62 58 56 55 56 57 59 61 60 62 61 62 64 72 73 72 72 74 74 74 73 74 77 77 76 78 76 77 79 76 76 76
75 78 80 82 79 78 77 75 74 73 77 71 65 65 65 69 64 61 59 59 56 55 57 58 59 59 61 62 62 67 71 70 69 74 75 74 74 73 78 78 79 79 80 78 78 76 76 75 74
80 79 79 79 78 78 75 76 76 74 76 68 65 68 71 71 67 61 60 58 57 58 57 59 60 60 62 62 63 66 70 71 74 73 74 74 76 76 78 77 78 79 79 80 78 77 76 76 75
79 73 78 78 78 77 78 66 72 77 77 72 70 73 72 70 71 66 64 60 59 58 60 59 61 62 63 64 67 73 73 74 74 75 75 76 77 76 77 77 78 79 79 77 77 75 76 75 76
74 75 66 57 78 79 71 46 73 78 75 74 74 74 73 71 72 73 71 68 68 69 69 68 70 68 68 69 70 72 74 74 76 77 76 77 78 77 77 78 77 77 76 76 75 74 74 74 75
72 64 65 64 79 77 75 52 74 79 77 75 76 75 74 73 75 74 72 72 73 72 70 70 70 71 72 74 73 74 76 77 80 79 79 77 78 76 75 77 77 75 75 75 74 73 74 72 72
64 65 69 68 66 75 72 71 74 77 77 75 76 76 75 74 75 75 74 74 75 76 73 71 71 72 72 70 73 75 76 77 79 79 78 77 77 76 76 77 75 74 75 74 73 72 73 73 72
70 68 68 71 75 71 70 72 69 77 77 75 75 76 76 76 79 76 75 75 75 77 75 74 73 73 73 74 73 75 73 76 78 78 78 77 77 76 75 77 75 74 74 72 71 70 68 69 71
68 66 66 70 74 71 68 70 73 77 76 77 77 77 77 78 77 75 74 76 76 76 76 75 76 76 74 76 77 78 78 78 80 80 79 79 76 77 76 76 74 73 73 70 69 69 67 69 69
67 65 64 65 66 74 70 66 73 77 79 79 80 81 81 80 78 76 74 75 76 76 76 77 77 77 74 76 80 79 79 79 78 79 78 77 76 77 76 75 75 72 71 69 68 68 68 66 67
62 72 68 67 65 58 70 54 64 74 74 76 78 79 80 81 81 79 77 76 76 77 78 78 79 79 80 79 79 76 76 75 77 77 79 76 73 71 73 74 72 70 70 67 67 70 68 67 65
66 71 69 68 65 63 60 60 62 73 70 74 77 79 81 82 82 81 79 79 80 79 79 79 79 80 81 80 78 78 75 77 79 78 74 74 73 72 74 74 70 68 69 68 66 67 67 67 66
74 67 67 67 64 52 62 60 60 66 72 76 79 81 81 82 83 84 85 83 82 82 79 79 79 80 81 80 78 77 76 76 77 78 73 73 74 73 71 70 68 67 67 67 67 67 65 66 62
70 63 50 48 50 48 64 62 64 63 77 77 78 82 83 83 83 84 84 84 82 81 80 80 79 79 80 79 79 77 77 76 76 77 74 72 70 70 69 68 65 62 62 63 67 65 60 57 54
65 64 52 40 44 50 63 55 65 76 79 80 81 82 84 85 84 84 85 85 84 83 81 79 80 79 80 73 73 77 77 78 76 74 75 73 71 70 66 61 60 62 62 62 58 54 55 57 54
65 59 69 56 57 50 59 65 71 77 76 78 79 80 81 83 84 85 86 86 85 83 82 80 80 80 80 71 65 67 73 75 73 72 73 72 70 63 60 58 61 62 63 56 52 52 53 49 53
69 71 57 58 43 41 56 59 61 68 71 75 77 78 80 81 82 84 86 86 86 86 83 81 80 79 80 79 74 74 75 72 72 71 69 68 65 63 61 61 61 60 55 54 55 50 49 48 46
64 61 64 63 57 44 46 56 72 71 74 74 76 79 80 80 80 80 82 85 87 87 85 82 81 81 81 81 78 74 70 70 67 66 65 63 64 64 62 62 59 55 56 54 48 49 47 46 46
70 65 64 53 52 57 54 55 76 76 77 77 77 79 81 82 81 80 81 80 81 82 83 81 80 80 81 81 79 73 68 67 65 63 62 61 61 58 57 54 53 50 48 47 44 45 47 45 44
MSLP
1012.00 1011.29 1009.92 1008.71 1007.77 1005.49 1003.69 1002.14 1001.02 1001.25 1001.33 1001.27 1001.32 1001.53 1003.53 1006.53 1008.90 1009.53 1009.45 1008.54 1008.69 1009.49 1010.06 1011.52 1012.26 1012.59 1013.23 1013.73 1014.32 1014.88 1015.32 1015.70 1016.07 1016.46 1017.02 1017.39 1017.75 1018.02 1018.20 1018.51 1018.73 1019.01 1019.44 1019.93 1020.23 1020.37 1020.53 1020.90 1020.96
1010.35 1009.87 1009.18 1007.57 1006.22 1003.81 1002.10 1001.75 1001.74 1001.96 1002.38 1002.12 1003.69 1003.83 1003.83 1007.25 1008.02 1009.70 1009.74 1009.88 1009.34 1010.35 1010.29 1011.21 1012.71 1012.94 1013.45 1014.08 1014.44 1015.11 1015.58 1016.00 1016.38 1016.79 1017.29 1017.72 1018.06 1018.34 1018.58 1018.77 1019.16 1019.49 1019.79 1020.31 1020.62 1020.91 1021.18 1021.44 1021.48
1010.96 1009.75 1008.29 1006.35 1004.83 1003.46 1002.06 1002.46 1002.25 1003.26 1004.05 1004.17 1003.96 1004.34 1003.67 1004.42 1008.32 1008.91 1009.01 1009.85 1009.68 1011.27 1011.36 1011.71 1012.87 1013.37 1013.80 1014.34 1014.75 1015.24 1015.92 1016.29 1016.62 1017.12 1017.44 1017.97 1018.38 1018.67 1018.91 1019.31 1019.61 1019.79 1020.13 1020.62 1021.06 1021.40 1021.86 1021.99 1022.01
1009.50 1008.47 1007.69 1006.16 1004.28 1003.10 1002.68 1002.98 1003.40 1003.50 1003.65 1004.57 1004.20 1003.98 1006.40 1007.83 1008.28 1009.17 1008.83 1009.22 1010.43 1011.14 1011.61 1012.28 1013.14 1013.80 1014.07 1014.40 1014.94 1015.66 1016.17 1016.60 1017.08 1017.43 1017.61 1018.12 1018.63 1018.97 1019.26 1019.66 1020.05 1020.15 1020.54 1021.01 1021.60 1021.98 1022.25 1022.42 1022.38
1009.14 1007.52 1006.06 1004.67 1003.78 1003.54 1003.75 1003.70 1004.00 1003.95 1003.74 1003.86 1004.68 1003.96 1006.73 1009.75 1010.20 1010.27 1009.78 1010.14 1010.64 1011.09 1011.72 1013.04 1013.92 1014.28 1014.36 1014.69 1015.32 1015.97 1016.43 1017.07 1017.43 1017.85 1018.08 1018.44 1018.82 1019.25 1019.53 1019.96 1020.33 1020.77 1021.14 1021.64 1022.00 1022.41 1022.59 1022.74 1022.79
1007.79 1006.83 1005.19 1003.73 1003.35 1003.86 1004.27 1004.42 1004.24 1004.04 1004.10 1004.80 1005.33 1005.20 1008.40 1010.15 1010.65 1011.42 1011.33 1011.46 1011.47 1011.86 1012.61 1013.23 1014.05 1014.64 1014.87 1015.19 1015.71 1016.28 1016.80 1017.59 1017.91 1018.29 1018.50 1019.02 1019.31 1019.63 1019.98 1020.27 1020.77 1021.30 1021.73 1022.18 1022.51 1022.74 1022.89 1023.15 1023.25
1007.38 1006.03 1004.69 1004.21 1003.88 1003.87 1004.29 1004.97 1004.77 1004.78 1004.74 1004.87 1005.34 1006.18 1009.54 1010.63 1011.97 1011.89 1011.87 1011.92 1012.03 1012.37 1012.89 1013.80 1014.86 1015.30 1015.73 1015.92 1016.28 1016.80 1017.23 1017.86 1018.33 1018.66 1019.05 1019.45 1019.77 1020.21 1020.60 1020.80 1021.18 1021.68 1022.14 1022.55 1022.96 1023.06 1023.25 1023.51 1023.60
1007.48 1006.17 1004.61 1004.04 1004.33 1005.03 1004.84 1005.23 1005.82 1005.82 1005.12 1006.47 1006.79 1006.45 1009.15 1011.55 1012.77 1012.99 1013.01 1013.23 1013.13 1013.38 1013.63 1014.31 1014.74 1015.85 1016.34 1016.44 1016.73 1017.66 1017.68 1018.11 1018.55 1019.07 1019.44 1019.79 1020.03 1020.78 1021.16 1021.32 1021.61 1022.07 1022.41 1022.90 1023.18 1023.45 1023.66 1023.77 1023.97
1007.31 1005.62 1003.98 1004.04 1004.13 1005.13 1004.74 1005.38 1006.04 1006.99 1006.55 1007.12 1008.09 1009.12 1010.83 1012.15 1013.07 1013.62 1013.89 1014.12 1014.34 1014.43 1014.65 1015.12 1015.53 1015.63 1017.19 1017.36 1017.42 1018.25 1018.56 1018.46 1018.70 1019.57 1019.84 1020.15 1020.10 1020.75 1020.93 1021.92 1022.21 1022.50 1022.80 1023.16 1023.60 1023.77 1023.81 1024.12 1024.29
1006.67 1004.69 1004.30 1004.55 1004.84 1004.81 1005.24 1005.99 1006.18 1006.91 1006.82 1007.59 1010.15 1011.43 1012.17 1012.69 1013.23 1013.91 1014.51 1014.95 1015.36 1015.61 1015.80 1016.25 1016.45 1016.37 1017.71 1017.85 1017.83 1018.36 1019.36 1019.26 1019.21 1019.72 1019.88 1020.09 1020.52 1020.69 1021.57 1022.47 1022.64 1022.99 1023.46 1023.82 1023.89 1023.94 1024.00 1023.28 1023.20
1005.66 1004.94 1004.65 1004.68 1005.41 1005.58 1005.32 1005.43 1006.35 1006.53 1006.91 1007.74 1009.48 1011.92 1012.64 1013.05 1013.49 1014.28 1015.17 1015.69 1015.98 1016.16 1016.38 1016.54 1016.66 1017.26 1017.66 1019.06 1018.77 1018.87 1019.09 1019.58 1019.91 1020.18 1019.77 1020.56 1021.19 1021.30 1022.07 1022.74 1022.89 1023.20 1023.69 1023.67 1023.69 1023.86 1023.35 1023.10 1023.07
1005.82 1005.02 1004.91 1004.78 1005.41 1005.68 1005.48 1005.29 1006.17 1007.32 1008.09 1008.89 1011.01 1012.39 1012.89 1013.02 1013.92 1014.69 1015.55 1016.20 1016.54 1016.90 1016.98 1017.35 1017.56 1017.48 1018.80 1019.18 1020.04 1019.57 1019.31 1019.87 1020.22 1020.20 1020.12 1020.86 1021.19 1021.51 1021.93 1022.03 1022.33 1022.77 1022.81 1023.13 1023.23 1023.04 1023.54 1023.77 1023.92
1005.67 1005.14 1004.96 1004.97 1005.49 1005.62 1006.06 1005.95 1006.22 1007.27 1008.38 1010.41 1011.81 1012.52 1012.70 1012.66 1014.06 1015.28 1016.02 1016.73 1017.18 1017.48 1017.79 1018.06 1018.24 1018.68 1019.28 1019.67 1020.09 1019.91 1019.60 1020.21 1020.55 1020.64 1021.00 1020.85 1021.42 1021.31 1021.32 1021.48 1021.93 1022.06 1022.38 1022.74 1022.73 1023.45 1023.41 1023.89 1024.10
1005.34 1005.45 1005.08 1005.05 1005.23 1005.46 1005.75 1005.47 1006.33 1007.38 1008.66 1010.53 1011.46 1011.86 1012.03 1012.46 1013.81 1015.26 1016.17 1016.89 1017.65 1018.12 1018.55 1018.96 1019.15 1019.57 1019.84 1019.80 1019.92 1019.85 1019.71 1020.17 1020.72 1021.33 1021.12 1021.16 1021.13 1021.28 1021.30 1021.57 1021.84 1022.09 1022.33 1022.44 1022.78 1023.11 1023.30 1023.53 1023.90
1005.89 1005.39 1004.37 1004.87 1005.16 1005.01 1005.91 1006.10 1005.77 1007.18 1008.06 1009.37 1010.18 1010.91 1011.64 1012.41 1013.44 1014.32 1015.52 1016.78 1017.43 1018.37 1018.80 1019.13 1019.45 1019.97 1019.82 1019.50 1019.69 1019.60 1020.30 1020.77 1021.11 1020.90 1020.88 1021.13 1021.18 1021.29 1021.26 1021.58 1021.65 1021.98 1022.08 1022.74 1022.64 1023.22 1023.28 1023.54 1023.63
1005.51 1004.78 1004.18 1006.87 1004.66 1004.62 1006.05 1008.25 1006.51 1006.90 1007.62 1008.16 1009.14 1010.07 1011.05 1012.18 1012.82 1013.67 1014.61 1015.74 1016.58 1017.09 1017.78 1018.55 1018.88 1019.40 1019.50 1019.78 1020.25 1020.10 1020.37 1020.61 1020.53 1020.52 1020.68 1020.98 1020.96 1020.96 1021.33 1021.29 1021.68 1021.97 1022.30 1022.66 1022.93 1022.96 1023.16 1023.33 1023.43
1004.75 1003.91 1003.86 1004.92 1004.12 1004.08 1004.64 1005.31 1005.23 1006.07 1006.69 1007.20 1008.05 1009.28 1010.25 1011.38 1012.07 1013.27 1014.31 1014.81 1015.44 1016.25 1016.92 1017.55 1018.20 1018.66 1018.92 1018.92 1019.53 1019.72 1019.50 1019.67 1019.56 1019.81 1020.10 1020.37 1020.56 1021.05 1021.43 1021.20 1021.53 1022.23 1022.27 1022.44 1022.55 1022.87 1022.93 1023.22 1023.49
1003.40 1003.43 1003.37 1003.38 1004.65 1004.20 1003.75 1003.94 1004.77 1005.31 1005.90 1006.51 1007.18 1008.36 1009.47 1010.30 1011.23 1012.55 1013.54 1014.39 1014.81 1015.50 1016.42 1017.10 1017.63 1018.17 1018.65 1018.98 1019.02 1019.04 1018.99 1019.32 1019.17 1019.24 1019.89 1020.08 1020.45 1020.87 1021.10 1020.89 1021.48 1022.19 1021.90 1022.25 1022.65 1022.73 1022.99 1023.14 1023.22
1004.23 1003.64 1002.98 1003.19 1003.89 1004.01 1004.06 1003.42 1004.26 1004.71 1005.32 1006.05 1006.77 1007.38 1008.48 1009.43 1010.33 1011.83 1012.83 1013.66 1014.19 1014.49 1015.52 1016.31 1016.79 1017.37 1017.95 1018.04 1018.17 1018.32 1018.57 1018.76 1018.64 1019.11 1019.26 1019.53 1020.13 1020.52 1020.70 1020.63 1021.35 1021.77 1021.50 1021.98 1022.60 1022.85 1023.15 1023.32 1023.55
1005.09 1004.26 1003.35 1003.59 1004.01 1004.23 1004.45 1003.22 1004.14 1003.42 1004.45 1005.18 1005.85 1006.46 1007.37 1008.29 1009.63 1011.12 1012.22 1012.74 1013.35 1013.77 1014.72 1015.43 1015.96 1016.41 1017.15 1017.19 1017.24 1017.48 1017.64 1017.90 1017.79 1017.99 1018.49 1018.90 1019.73 1020.11 1020.37 1020.35 1020.83 1021.39 1021.50 1022.08 1022.46 1022.64 1022.94 1023.17 1023.42
1004.84 1004.21 1004.03 1004.03 1004.74 1004.01 1003.86 1003.39 1002.51 1002.79 1003.59 1004.28 1004.98 1005.47 1006.21 1007.08 1008.34 1009.93 1011.19 1011.89 1012.74 1013.15 1013.89 1014.49 1015.11 1015.66 1016.52 1016.55 1016.33 1016.81 1017.14 1017.15 1017.40 1017.49 1017.95 1018.83 1019.33 1019.56 1019.95 1020.27 1020.36 1020.94 1021.35 1021.64 1022.23 1022.38 1022.46 1022.69 1023.19
1004.14 1004.41 1004.68 1004.46 1004.33 1003.47 1003.92 1003.10 1003.17 1002.28 1002.88 1003.47 1004.08 1004.53 1005.10 1005.91 1007.11 1008.46 1009.82 1010.77 1011.67 1012.37 1013.05 1013.70 1014.22 1014.61 1015.06 1015.45 1015.33 1015.85 1016.19 1016.39 1016.56 1017.08 1017.41 1018.29 1019.38 1019.83 1019.84 1019.97 1020.42 1020.88 1021.05 1021.42 1021.79 1021.77 1022.06 1022.36 1022.38
1004.26 1004.61 1004.80 1004.82 1004.31 1003.82 1004.59 1002.98 1002.38 1002.22 1001.95 1002.39 1003.07 1003.68 1004.36 1005.02 1005.79 1006.82 1008.11 1009.22 1010.23 1011.26 1011.94 1012.62 1013.18 1013.63 1013.93 1014.28 1014.85 1015.00 1015.59 1015.69 1015.93 1016.50 1016.93 1017.73 1018.46 1019.17 1019.19 1019.54 1020.43 1020.73 1020.93 1021.21 1021.42 1021.46 1021.91 1022.17 1022.22
1004.57 1005.15 1005.30 1005.21 1004.65 1004.07 1003.01 1002.98 1001.91 1001.62 1000.89 1001.00 1001.60 1002.49 1003.42 1004.14 1004.81 1005.63 1006.56 1007.88 1008.89 1009.96 1010.87 1011.68 1012.16 1012.36 1012.81 1013.30 1014.24 1014.51 1014.71 1015.17 1015.10 1015.39 1016.30 1017.16 1017.76 1018.40 1018.81 1019.49 1019.93 1020.40 1020.77 1020.75 1021.03 1021.26 1021.83 1022.00 1022.51
1004.70 1004.81 1004.77 1004.74 1004.15 1003.63 1003.09 1002.06 1001.39 1002.09 1000.74 1000.88 1001.13 1001.29 1001.83 1002.92 1003.89 1004.50 1005.12 1006.03 1007.26 1008.36 1009.53 1010.42 1011.04 1011.28 1011.85 1012.91 1013.63 1014.25 1014.52 1014.72 1014.93 1014.98 1015.53 1016.52 1017.22 1017.81 1018.36 1018.93 1019.55 1020.00 1020.19 1020.50 1020.62 1021.18 1021.81 1022.40 1023.01
1003.97 1004.13 1004.27 1004.24 1004.09 1003.50 1003.30 1002.03 1001.30 1000.82 1000.96 1001.26 1001.47 1001.61 1001.68 1001.95 1002.65 1003.39 1003.98 1004.78 1005.86 1007.03 1008.20 1009.33 1009.85 1010.43 1011.39 1012.75 1013.52 1013.88 1013.87 1014.11 1014.33 1014.64 1014.96 1015.72 1016.30 1016.84 1017.69 1018.85 1019.35 1019.57 1019.82 1020.16 1021.02 1021.81 1022.18 1022.95 1023.39
1003.03 1003.49 1003.58 1004.11 1004.70 1004.24 1002.59 1001.56 1001.27 1000.75 1000.84 1001.01 1001.03 1001.30 1001.47 1001.76 1002.21 1002.34 1003.04 1003.90 1004.81 1005.97 1007.21 1008.32 1009.11 1009.75 1010.86 1012.55 1013.48 1013.75 1012.17 1013.72 1014.17 1014.73 1015.07 1015.45 1016.06 1016.95 1017.91 1018.66 1018.94 1019.25 1019.59 1020.44 1021.27 1022.08 1022.83 1023.22 1023.46
1002.78 1003.43 1003.60 1003.93 1004.21 1003.82 1002.03 1000.92 1000.15 1000.66 1000.67 1000.88 1000.85 1001.05 1001.42 1001.99 1002.07 1002.14 1002.32 1002.97 1004.24 1004.99 1006.38 1007.67 1008.56 1009.14 1010.07 1010.99 1012.19 1012.62 1013.00 1013.79 1014.35 1014.72 1014.97 1015.51 1016.49 1017.33 1017.91 1018.32 1018.59 1019.09 1019.79 1020.35 1021.14 1021.95 1022.86 1023.40 1023.59
1002.90 1002.84 1002.97 1003.19 1003.61 1003.97 1002.14 1000.94 1000.27 1000.22 1000.55 1000.78 1000.99 1001.20 1001.42 1001.84 1002.37 1002.80 1003.10 1003.34 1003.67 1004.30 1005.54 1006.82 1007.81 1008.40 1008.87 1009.66 1010.88 1012.05 1013.03 1013.59 1014.25 1014.62 1015.07 1015.78 1016.41 1017.05 1017.50 1018.04 1018.68 1019.33 1019.84 1020.50 1021.67 1022.39 1023.08 1023.57 1023.72
1001.52 1002.04 1002.45 1002.71 1003.09 1003.11 1002.64 1001.60 1000.78 1000.65 1000.48 1000.73 1001.04 1001.27 1001.33 1001.79 1002.35 1003.19 1003.62 1004.18 1004.41 1004.89 1005.56 1006.64 1007.56 1008.08 1008.51 1009.20 1010.15 1011.26 1012.49 1013.29 1013.94 1014.58 1015.18 1015.71 1016.28 1016.83 1017.39 1018.06 1018.84 1019.53 1020.31 1021.01 1021.72 1022.75 1023.29 1023.35 1023.53
Wind_Speed
10 13 11 9 9 9 17 20 15 6 5 9 8 4 4 11 8 2 7 8 10 15 21 18 16 19 22 22 21 21 21 21 21 20 18 18 17 17 16 16 20 20 21 21 21 22 22 21 20
13 7 9 10 9 14 14 20 5 3 13 10 3 9 13 17 14 8 5 6 10 15 19 21 16 19 21 21 22 21 21 21 20 20 19 18 17 17 16 15 16 19 21 21 21 21 20 19 18
14 9 11 12 13 14 10 15 9 5 1 8 5 7 9 13 11 1 5 5 3 14 10 20 17 19 21 22 22 22 21 20 20 19 20 18 17 17 16 14 14 17 20 21 21 20 19 17 14
7 9 8 10 17 11 15 2 1 7 9 6 9 4 7 10 5 8 5 11 18 18 12 20 18 18 21 22 21 21 21 20 19 20 20 19 18 17 17 14 16 18 20 21 20 19 18 15 12
10 8 10 16 12 6 4 7 7 10 8 4 7 6 7 5 4 10 6 10 15 16 15 15 15 17 20 20 21 20 19 18 19 18 19 19 18 17 16 16 19 19 20 19 20 18 17 14 11
10 4 13 10 3 3 3 6 9 9 4 3 8 10 7 5 8 8 9 8 8 8 12 15 15 15 16 19 19 18 18 16 17 18 19 18 18 18 17 19 20 19 19 18 17 16 15 14 12
12 10 13 7 4 5 4 7 6 8 4 4 10 6 6 5 7 9 8 9 8 8 10 13 10 13 13 15 16 14 16 16 15 16 18 17 18 17 17 19 19 19 18 17 16 15 14 14 12
8 8 11 5 5 9 7 4 5 6 3 5 6 3 7 9 8 8 10 10 7 11 7 15 15 10 9 13 17 14 16 16 16 15 17 18 19 17 17 18 18 18 18 17 16 14 13 14 10
9 13 7 2 5 9 9 8 7 5 8 2 16 15 13 14 11 9 9 10 9 9 11 12 15 16 8 10 13 15 15 15 19 15 17 12 13 16 16 16 16 17 16 15 14 14 14 12 8
11 11 5 7 11 13 9 5 2 4 1 7 10 9 11 10 9 10 9 7 9 7 12 10 13 12 9 5 13 14 11 9 10 11 10 8 11 9 13 12 15 15 14 12 12 11 12 14 9
7 11 3 3 8 11 7 7 2 7 4 14 8 9 7 10 8 9 10 9 8 10 9 14 14 11 13 4 4 3 6 6 6 7 7 8 6 9 7 6 8 9 11 8 9 8 7 7 5
11 8 6 7 7 6 5 9 5 1 8 10 16 12 10 11 9 10 12 11 11 11 12 11 10 12 11 8 5 7 7 6 5 5 7 6 4 5 7 8 9 9 8 9 8 4 5 5 6
11 10 6 8 1 4 1 5 3 5 12 15 15 12 9 8 13 11 12 11 11 12 10 13 11 9 8 8 9 6 7 6 4 4 6 6 6 4 7 7 8 8 6 7 6 6 6 5 4
7 10 11 3 5 4 9 7 9 9 18 14 12 8 8 12 13 14 13 12 12 11 11 8 9 9 7 6 6 3 6 5 5 6 6 8 6 5 6 6 7 7 7 6 6 6 6 5 5
11 15 11 12 12 11 7 13 12 12 13 13 15 11 9 11 12 15 17 15 14 13 16 11 12 11 9 8 5 6 5 7 7 7 8 6 7 9 7 7 6 6 6 7 6 5 4 5 3
15 17 12 14 10 8 9 9 9 13 13 13 13 11 11 12 14 15 18 20 20 21 21 21 17 17 16 13 11 8 8 8 8 8 7 11 10 10 8 7 6 6 6 7 6 6 6 4 4
14 16 5 10 11 7 8 9 13 12 11 12 13 12 14 14 15 17 14 19 22 21 19 19 17 20 18 14 11 12 11 10 9 8 9 12 9 8 8 7 7 8 8 7 6 6 5 5 4
9 14 12 11 9 9 9 5 0 11 11 12 11 14 12 14 17 18 19 19 21 22 22 18 14 16 15 9 8 7 6 9 9 8 8 10 8 10 9 7 8 9 7 6 7 6 5 5 4
12 17 11 6 5 7 10 8 19 12 12 12 13 13 15 14 16 19 18 19 19 19 20 20 19 19 14 12 11 11 10 10 10 9 12 12 12 11 11 8 8 9 7 8 8 6 6 5 4
11 15 14 5 5 7 1 19 7 17 13 15 16 14 15 17 17 18 19 19 20 19 19 19 19 17 14 10 11 9 9 10 10 9 11 9 10 12 11 9 9 10 7 9 9 9 7 7 5
12 16 4 11 14 10 11 15 14 8 12 14 15 16 16 18 19 20 20 19 18 20 20 20 20 19 16 16 11 9 9 9 10 10 9 10 12 11 12 11 9 10 8 7 10 10 11 8 6
15 14 6 10 12 7 9 8 13 11 14 14 16 15 16 18 19 20 21 22 22 20 18 20 20 20 17 17 12 13 11 11 10 10 9 8 10 10 12 12 10 11 8 8 9 10 9 9 7
8 3 8 13 13 14 14 14 13 11 13 15 17 18 17 18 19 22 23 23 22 20 18 18 20 20 20 18 17 13 15 11 10 10 9 12 12 14 13 11 11 11 9 9 8 9 10 7 7
7 5 9 12 12 12 15 12 5 13 14 15 18 20 20 19 20 20 21 21 21 21 20 18 21 21 21 19 20 18 16 14 11 12 8 7 8 9 12 13 10 10 11 11 10 9 10 9 4
13 12 9 9 10 11 10 10 5 8 4 1 2 9 20 20 20 20 22 22 21 22 21 19 22 23 22 19 19 19 18 16 16 13 10 10 8 9 13 13 11 8 8 8 10 10 5 5 3
17 16 7 8 8 6 6 7 8 7 5 3 5 6 8 11 19 21 21 20 22 21 23 22 22 22 18 11 10 14 20 12 11 9 8 9 9 9 8 10 10 11 9 8 5 4 5 5 3
14 19 16 13 8 8 9 7 18 13 5 4 6 4 8 11 14 19 22 21 20 19 18 20 20 19 16 15 15 19 15 14 9 11 10 8 6 6 8 10 11 10 10 6 7 5 6 3 4
12 12 12 9 6 10 12 10 3 7 5 3 4 1 2 2 5 10 14 19 17 17 18 19 19 18 19 18 17 13 14 11 13 11 10 6 6 8 10 12 11 9 9 9 10 7 5 5 3
13 11 11 8 10 6 8 9 5 5 5 4 2 2 2 2 5 6 7 9 11 15 17 16 16 18 15 15 16 13 10 11 9 8 6 5 8 11 10 9 8 7 9 9 6 7 7 5 5
16 20 18 11 13 8 7 12 2 7 6 6 8 4 2 2 7 6 6 6 9 11 11 12 13 13 13 12 11 11 9 7 7 5 5 4 5 3 5 7 7 4 9 8 7 8 6 6 6
Wind_Direction
216 226 239 253 244 225 256 248 252 17 317 1 360 307 357 52 45 46 223 39 146 129 140 148 133 133 132 132 129 128 129 129 128 127 126 125 125 123 122 119 121 119 111 109 105 102 97 93 90
274 256 239 268 252 260 230 236 123 304 12 16 339 267 246 123 153 173 233 181 147 142 150 142 139 135 132 133 131 132 132 131 130 129 127 126 125 124 121 117 118 122 114 111 105 99 96 94 90
258 258 269 245 240 257 290 357 60 60 20 253 229 263 313 83 98 6 108 154 80 150 167 129 133 135 136 137 135 133 135 135 133 132 131 127 125 121 117 119 123 120 116 112 106 102 98 93 88
248 218 229 255 271 253 295 148 344 269 176 226 259 142 91 23 17 14 147 152 171 160 170 133 135 138 137 134 134 135 136 135 135 136 130 127 121 117 116 123 132 125 117 113 109 105 100 92 84
238 261 263 248 272 301 295 304 324 271 292 257 240 207 84 75 358 40 47 159 168 164 141 123 121 134 134 132 132 134 133 133 134 131 126 122 116 111 113 116 118 116 112 114 111 108 102 94 86
260 240 261 275 57 89 299 303 289 278 270 234 254 255 74 58 1 45 63 64 125 100 129 121 121 122 125 127 128 131 129 130 130 128 120 115 106 100 105 109 112 112 113 113 112 109 102 97 87
260 285 285 320 358 239 30 357 305 332 259 189 343 213 93 86 34 25 43 63 65 86 127 114 109 119 106 112 116 119 128 126 120 117 113 104 97 98 102 107 111 113 113 112 112 108 105 101 89
289 273 260 200 307 56 63 347 354 262 158 31 315 312 159 113 76 52 58 53 71 87 112 110 112 104 113 121 108 112 114 114 105 103 104 101 100 102 104 108 110 114 116 115 112 109 106 99 97
256 259 257 41 313 220 58 333 103 351 290 338 18 27 83 116 107 84 60 63 66 95 95 118 129 120 142 140 117 116 106 116 113 112 117 132 122 128 131 98 108 110 113 117 117 117 112 110 100
248 280 336 26 346 340 356 319 14 289 144 215 88 82 108 118 122 100 94 70 97 88 102 103 106 100 94 110 129 133 144 143 124 137 151 129 133 126 113 103 99 103 109 114 126 129 160 184 148
239 276 7 322 47 315 316 226 138 271 172 347 102 122 131 114 113 108 96 90 91 106 112 119 112 101 111 78 84 103 137 124 127 162 121 127 108 108 124 133 134 129 143 146 147 175 208 60 58
263 222 266 331 6 301 299 345 100 281 350 73 116 130 141 125 119 120 110 103 101 90 106 115 115 105 119 122 137 199 139 130 145 96 110 139 133 157 151 169 155 170 179 163 185 122 107 101 96
246 278 308 299 6 283 81 240 23 108 91 104 122 142 151 147 115 110 109 112 109 104 105 115 117 111 119 145 152 157 128 117 94 184 165 143 175 197 175 167 172 178 170 183 171 145 147 132 128
332 295 280 225 194 230 258 165 201 126 120 129 138 149 153 127 124 131 130 110 120 114 126 129 138 141 154 127 108 178 119 122 195 190 189 203 196 168 175 173 182 188 183 176 170 161 158 180 148
277 277 234 195 218 249 241 331 282 139 138 150 167 136 146 121 135 147 146 137 138 131 146 156 141 150 149 131 133 137 157 197 202 208 192 187 200 181 180 196 183 187 180 187 176 170 181 186 169
252 258 269 343 241 209 148 259 153 155 150 158 140 160 139 148 141 136 145 155 155 158 156 164 159 172 156 162 185 200 199 202 204 203 176 205 204 179 204 185 193 189 171 188 178 190 192 201 206
219 263 267 191 236 229 222 202 132 153 171 161 155 154 147 156 152 138 161 152 154 160 164 164 165 176 183 183 185 204 198 207 204 202 200 194 198 196 212 195 193 178 189 191 179 204 209 187 211
253 214 222 250 27 239 258 66 56 162 169 170 182 154 162 166 160 161 163 162 167 169 164 172 173 181 187 201 188 213 200 207 217 190 205 204 206 199 211 201 190 199 190 183 197 210 196 221 209
320 293 257 79 137 287 252 242 179 164 172 172 196 167 174 181 163 165 172 169 187 171 170 179 183 183 186 190 193 199 199 204 208 201 221 186 209 196 202 202 187 212 198 199 195 193 192 206 200
247 258 257 133 167 272 185 298 317 155 177 181 199 181 189 173 169 169 178 185 190 178 183 188 188 191 194 216 198 205 203 207 214 197 206 214 210 201 202 211 191 203 203 204 193 196 194 220 198
228 248 14 296 324 230 280 270 244 179 171 187 199 191 191 180 177 175 184 187 192 192 190 194 194 197 191 210 202 198 212 222 206 213 199 203 216 206 211 212 210 198 210 190 199 203 210 211 193
221 225 220 285 235 271 325 259 299 174 191 197 192 200 194 189 185 181 188 191 194 201 194 201 200 205 205 208 214 203 209 210 211 217 202 195 214 221 212 217 212 209 206 200 198 206 215 232 208
256 306 229 252 271 271 230 252 165 240 195 196 201 202 204 198 194 190 191 196 198 197 202 203 207 210 209 201 221 200 213 217 206 210 211 199 192 214 216 218 212 214 210 210 204 208 212 204 246
245 217 239 247 254 265 265 244 180 244 220 193 199 200 202 205 204 203 195 195 197 199 200 201 210 211 212 209 200 223 208 224 216 212 190 210 210 205 215 216 208 210 213 209 209 208 208 220 141
218 221 229 224 229 246 283 238 244 332 260 288 266 215 196 203 207 208 203 193 196 196 197 202 207 214 209 210 211 212 225 215 228 231 193 206 205 206 216 206 198 205 210 215 212 207 202 138 130
208 222 216 222 234 240 311 225 242 158 58 235 263 263 271 215 207 212 213 200 198 196 195 201 207 215 206 190 226 236 221 222 221 227 212 210 214 204 182 193 199 205 202 200 121 120 123 190 195
204 214 237 271 240 277 245 206 163 201 207 215 242 237 228 216 226 220 214 208 204 192 196 199 211 212 211 178 189 227 232 224 221 225 224 234 202 180 175 197 203 204 199 155 123 159 180 139 146
259 229 213 228 237 243 235 241 165 210 184 158 182 194 128 222 231 229 217 205 204 198 192 196 210 212 206 197 199 213 224 219 222 228 228 209 208 204 204 206 200 191 164 166 173 139 158 152 112
200 223 224 217 253 276 255 224 38 137 172 207 256 278 82 98 141 174 209 221 222 207 193 194 205 211 212 203 190 197 205 216 211 220 217 198 216 217 212 209 203 176 190 165 125 138 128 127 130
207 208 210 228 212 235 266 282 237 243 262 255 240 227 231 113 133 144 153 170 184 197 194 190 199 207 201 200 191 184 169 179 190 188 168 193 203 133 137 146 174 150 107 122 135 148 146 154 177